Elko, NV

5:47 AM PST on February 26, 2017 (GMT -0800)
Elko Regional

Weather History for KEKO - May, 2013

Change the Weather History Date:

Sunday, May 12, 2013

  Actual Average Record
Temperature  
Mean Temperature 63 °F 52 °F  
Max Temperature 87 °F 68 °F 88 °F (1914)
Min Temperature 39 °F 37 °F 18 °F (2000)
Degree Days  
Heating Degree Days 2 13  
Month to date heating degree days 133 172  
Since 1 July heating degree days 6533 6743  
Cooling Degree Days 0 0  
Month to date cooling degree days 0 0  
Year to date cooling degree days 0 0  
Growing Degree Days 12 (Base 50)    
Moisture  
Dew Point 28 °F    
Average Humidity 35    
Maximum Humidity 59    
Minimum Humidity 11    
Precipitation  
Precipitation 0.00 in 0.03 in 0.29 in (1998)
Month to date precipitation T 0.38  
Year to date precipitation 2.20 4.31  
Snow  
Snow 0.00 in 0.00 in 1.30 in (1942)
Month to date snowfall 0.0 0.3  
Since 1 July snowfall 42.2 41.1  
Snow Depth 0.00 in    
Sea Level Pressure  
Sea Level Pressure 30.12 in    
Wind  
Wind Speed 4 mph (South)    
Max Wind Speed 15 mph    
Max Gust Speed 20 mph    
Visibility 10 miles    
Events      
T = Trace of Precipitation, MM = Missing Value Source: NWS Daily Summary

Daily Weather History Graph

Daily Weather History Graph

Search for Another Location

Airport or City:

Trip Planner

Search our weather history database for the weather conditions in past years. The results will help you decide how hot, cold, wet, or windy it might be!

Date:

Astronomy

May. 12, 2013 Rise Set
Actual Time 5:28 AM PDT 7:51 PM PDT
Civil Twilight 4:57 AM PDT 8:22 PM PDT
Nautical Twilight 4:19 AM PDT 9:00 PM PDT
Astronomical Twilight 3:37 AM PDT 9:43 PM PDT
Moon 7:26 AM PDT (5/12) 10:21 PM PDT (5/12)
Length of Visible Light 15h 24m
Length of Day
14h 22m
Waxing Crescent, 7% of the Moon is Illuminated
May 12
Waxing Crescent
May 17
First Quarter
May 24
Full
May 31
Last Quarter
Jun 8
New

Hourly Weather History & Observations

Time (PDT) Temp. Dew Point Humidity Pressure Visibility Wind Dir Wind Speed Gust Speed Precip Events Conditions
12:56 AM 50.0 °F 27.0 °F 41% 30.17 in 10.0 mi Calm Calm - N/A   Clear
1:56 AM 48.9 °F 28.0 °F 44% 30.17 in 10.0 mi East 4.6 mph - N/A   Clear
2:56 AM 48.0 °F 26.1 °F 42% 30.17 in 10.0 mi East 5.8 mph - N/A   Clear
3:56 AM 48.0 °F 28.0 °F 46% 30.18 in 10.0 mi NNE 5.8 mph - N/A   Clear
4:56 AM 46.9 °F 27.0 °F 46% 30.18 in 10.0 mi East 3.5 mph - N/A   Clear
5:56 AM 39.9 °F 27.0 °F 60% 30.22 in 10.0 mi Calm Calm - N/A   Clear
6:56 AM 48.0 °F 27.0 °F 44% 30.22 in 10.0 mi Calm Calm - N/A   Clear
7:56 AM 54.0 °F 28.9 °F 38% 30.22 in 10.0 mi Calm Calm - N/A   Clear
8:56 AM 61.0 °F 30.9 °F 32% 30.21 in 10.0 mi Calm Calm - N/A   Clear
9:56 AM 69.1 °F 30.0 °F 23% 30.18 in 10.0 mi Calm Calm - N/A   Clear
10:56 AM 75.9 °F 30.0 °F 19% 30.17 in 10.0 mi Calm Calm - N/A   Clear
11:56 AM 81.0 °F 26.1 °F 13% 30.13 in 10.0 mi Variable 6.9 mph - N/A   Clear
12:56 PM 82.9 °F 26.1 °F 13% 30.12 in 10.0 mi South 6.9 mph - N/A   Clear
1:56 PM 84.0 °F 27.0 °F 13% 30.10 in 10.0 mi West 12.7 mph 18.4 mph N/A   Clear
2:56 PM 84.0 °F 26.1 °F 12% 30.08 in 10.0 mi SSW 5.8 mph 18.4 mph N/A   Clear
3:56 PM 86.0 °F 27.0 °F 12% 30.05 in 10.0 mi WSW 10.4 mph - N/A   Clear
4:56 PM 84.9 °F 28.0 °F 13% 30.04 in 10.0 mi SSW 10.4 mph - N/A   Clear
5:56 PM 84.0 °F 27.0 °F 13% 30.04 in 10.0 mi SW 6.9 mph - N/A   Clear
6:56 PM 78.1 °F 30.0 °F 17% 30.02 in 10.0 mi WSW 5.8 mph - N/A   Clear
7:56 PM 73.9 °F 28.9 °F 19% 30.02 in 10.0 mi Calm Calm - N/A   Clear
8:56 PM 69.1 °F 28.9 °F 22% 30.04 in 10.0 mi Calm Calm - N/A   Clear
9:56 PM 62.1 °F 30.0 °F 30% 30.05 in 10.0 mi SW 5.8 mph - N/A   Clear
10:56 PM 62.1 °F 30.9 °F 31% 30.04 in 10.0 mi Calm Calm - N/A   Clear
11:56 PM 60.1 °F 30.0 °F 32% 30.03 in 10.0 mi ENE 3.5 mph - N/A   Clear